sat.trackr.live / text

‹ back to catalog

GEESAT-5 01

NORAD 65550 · 2025-201A

PAYLOAD ACTIVE UNKNOWN

§ Identity

Operator
Country
PRC
Launch date
2025-09-08
Launch site
YSLA
Launch vehicle
Mass (kg)
RCS (m²)

External: N2YO · Heavens-Above · Gunter

§ Orbital elements

Epoch: 2026-05-25T00:52:18.434208Z

Period
97.03 min
Inclination
49.9905°
Eccentricity
0.0003860
Mean motion
14.84081888 rev/d
Perigee alt
613.8 km
Apogee alt
619.2 km
Semi-major
6,994.6 km
B*
1.7218e-4
RAAN
147.0076°
Arg perigee
314.5718°
Mean anomaly
45.4905°
Rev number
3,836

§ Raw data

GEESAT-5 011 65550U 25201A   26145.03632447  .00001224  00000+0  17218-3 0  99982 65550  49.9905 147.0076 0003860 314.5718  45.4905 14.84081888 38367

JSON: /api/v1/satellites/65550 · /tle

For live sub-satellite position, see the globe view (requires WebGL).

§ Visibility from observer

Set your observer location to see the next 7 days of passes ≥ 10°. The values pass through the URL so the page stays shareable.

No JS? Fill the form by hand. The geolocation button needs JavaScript.